Flag for U.S.A. Weather past 2 weeks in Fayetteville, North Carolina, U.S.A.

Now
78 °F

Overcast.


Feels Like: 81 °F
Forecast: 72 / 89 °F
Wind: 6 mph from Northeast

Location: Fayetteville Regional Airport

Current Time: Aug 30, 2014 at 10:55:32 AM

Latest Report: Aug 30, 2014 at 9:53 AM


Visibility: 10 mi

Pressure: 30.19 "Hg

Humidity: 84%

Dew point: 73 °F

Location of FayettevilleLocation

Historic Weather in Fayetteville — Graph

°F

Fayetteville temperature yesterday

Maximum temperature yesterday: 92 °F (at 2:53 PM)
Minimum temperature yesterday: 71 °F (at 5:53 AM)
Average temperature yesterday: 81 °F

Past Weeks' High & Low Weather Summary

 TemperatureHumidityPressure
High96 °F (Aug 22, 1:53 PM)97% (Aug 16, 11:53 PM)30.21 "Hg (Aug 16, 11:53 PM)
Low62 °F (Aug 25, 5:53 AM)30% (Aug 27, 1:53 PM)29.75 "Hg (Aug 18, 7:53 PM)
Average79 °F71%29.97 "Hg
* Reported Aug 15 9:53 AM — Aug 30 9:04 AM, Fayetteville, Weather by CustomWeather, © 2014

Note: Actual official high and low records may vary slightly from our data, if they occured in-between our weather recording intervals... More about our weather records

Advertising

Fayetteville weather history for previous 24 hours

 ConditionsComfort  
Time TempWeatherWind HumidityBarometerVisibility
9:04 AM
Aug 30
75 °FFog.5 mph90%30.21 "Hg6 mi
8:53 AM75 °FFog.3 mph90%30.19 "Hg5 mi
8:04 AM73 °FFog.No wind97%30.21 "Hg2 mi
7:53 AM73 °FFog.No wind94%30.19 "Hg1 mi
6:53 AM72 °FFog.5 mph97%30.17 "Hg1 mi
5:53 AM71 °FFog.5 mph93%30.16 "Hg5 mi
4:53 AM70 °FFog.No wind97%30.14 "Hg6 mi
3:53 AM72 °FClear.No wind91%30.14 "Hg10 mi
2:53 AM72 °FClear.No wind91%30.14 "Hg10 mi
1:53 AM73 °FClear.No wind90%30.15 "Hg10 mi
12:53 AM77 °FPassing clouds.No wind79%30.14 "Hg10 mi
11:53 PM
Aug 29
78 °FPassing clouds.No wind76%30.14 "Hg10 mi
10:53 PM80 °FPassing clouds.5 mph74%30.14 "Hg10 mi
9:53 PM80 °FPassing clouds.8 mph85%30.11 "Hg10 mi
8:53 PM81 °FClear.6 mph79%30.09 "Hg10 mi
7:53 PM83 °FPassing clouds.5 mph74%30.07 "Hg10 mi
6:53 PM86 °FSunny.7 mph67%30.05 "Hg10 mi
5:53 PM89 °FSunny.9 mph61%30.05 "Hg10 mi
4:53 PM92 °FSunny.9 mph52%30.04 "Hg10 mi
2:53 PM92 °FPartly sunny.6 mph43%30.06 "Hg10 mi
1:53 PM91 °FSunny.3 mph47%30.07 "Hg10 mi
12:53 PM89 °FSunny.6 mph52%30.07 "Hg10 mi
11:53 AM87 °FSunny.5 mph51%30.08 "Hg10 mi
10:53 AM84 °FSunny.5 mph53%30.09 "Hg10 mi
Weather by CustomWeather, © 2014

See weather overviewHow to use our weather pages